Location: Indian Hills
(32.9760°N, 85.9450°W)
Time: 02:31:44
(UTC+00:00)

Helios 1A Rocket - Pass Details

Date: 09 December 2019
Orbit: 564 x 587 km, 98.3° (Epoch: 20 January)

Event Time Altitude Azimuth Distance (km) Brightness Sun altitude
Rises 11:33:18 0° 7° (N) 2,765 6.3 -12.7°
Reaches altitude 10° 11:35:28 10° 3° (N) 1,863 5.3 -12.3°
Maximum altitude 11:39:24 55° 285° (WNW) 682 2.9 -11.5°
Drops below altitude 10° 11:43:18 10° 208° (SSW) 1,849 5.4 -10.7°
Sets 11:45:28 0° 203° (SSW) 2,742 6.4 -10.3°
